YN8O-13 Weather Reports


Display with metric or nautical units.
time (UTC)temp
F
wind
direction
speed
MPH
gust
MPH
rain 1hr
in
rain 24hr
in
rain mn
in
humidity
%
barometer
mb
20260507171447 86 93 3.0 7.0 0.00 0.00 0.00 37 1013.0
20260507170447 86 93 3.0 7.0 0.00 0.00 0.00 37 1013.0
20260507165447 86 93 3.0 7.0 0.00 0.00 0.00 37 1013.0
20260507164446 86 93 3.0 7.0 0.00 0.00 0.00 42 1013.0
20260507163446 86 93 3.0 7.0 0.00 0.00 0.00 42 1013.0
20260507162446 83 77 3.0 7.0 0.00 0.00 0.00 52 1014.0
20260507161445 83 77 3.0 7.0 0.00 0.00 0.00 52 1014.0
20260507160444 83 77 3.0 7.0 0.00 0.00 0.00 52 1014.0
20260507155444 82 77 3.0 7.0 0.00 0.00 0.00 53 1014.0
20260507154444 77 76 4.0 5.0 0.00 0.00 0.00 63 1014.0
20260507153443 77 76 4.0 5.0 0.00 0.00 0.00 63 1014.0
20260507152443 77 76 4.0 5.0 0.00 0.00 0.00 63 1014.0
20260507151442 77 76 4.0 5.0 0.00 0.00 0.00 63 1014.0
20260507150442 77 76 4.0 5.0 0.00 0.00 0.00 63 1014.0
20260507145442 77 76 4.0 5.0 0.00 0.00 0.00 63 1014.0
20260507144441 77 76 4.0 5.0 0.00 0.00 0.00 63 1014.0
20260507143441 75 80 4.0 5.0 0.00 0.00 0.00 68 1014.0
20260507142440 75 80 4.0 5.0 0.00 0.00 0.00 68 1014.0
20260507141440 76 80 4.0 6.0 0.00 0.00 0.00 68 1014.0
20260507140440 73 80 4.0 5.0 0.00 0.00 0.00 68 1014.0
20260507135439 73 80 4.0 5.0 0.00 0.00 0.00 68 1014.0
20260507134439 74 80 4.0 6.0 0.00 0.00 0.00 68 1014.0
20260507133438 73 83 1.0 3.0 0.00 0.00 0.00 71 1014.0
20260507132438 73 83 1.0 3.0 0.00 0.00 0.00 71 1014.0
20260507131438 73 83 1.0 3.0 0.00 0.00 0.00 71 1014.0
20260507130438 73 83 1.0 3.0 0.00 0.00 0.00 71 1014.0
20260507125437 73 83 1.0 3.0 0.00 0.00 0.00 71 1014.0
20260507124437 73 83 1.0 3.0 0.00 0.00 0.00 71 1014.0
20260507123437 73 83 1.0 3.0 0.00 0.00 0.00 71 1013.0
20260507122436 73 83 1.0 3.0 0.00 0.00 0.00 71 1013.0
20260507121436 73 83 1.0 3.0 0.00 0.00 0.00 71 1013.0
20260507120436 73 83 1.0 3.0 0.00 0.00 0.00 71 1013.0
20260507115435 73 83 1.0 3.0 0.00 0.00 0.00 71 1013.0
20260507114435 73 83 1.0 3.0 0.00 0.00 0.00 71 1013.0
20260507113435 73 83 1.0 3.0 0.00 0.00 0.00 71 1013.0
20260507112435 73 83 1.0 3.0 0.00 0.00 0.00 71 1013.0
20260507111434 73 83 1.0 3.0 0.00 0.00 0.00 71 1013.0
20260507110434 73 83 1.0 3.0 0.00 0.00 0.00 71 1013.0
20260507105434 73 83 1.0 3.0 0.00 0.00 0.00 71 1013.0
20260507104433 73 83 1.0 3.0 0.00 0.00 0.00 71 1013.0
20260507103433 73 83 1.0 3.0 0.00 0.00 0.00 71 1013.0
20260507102432 73 83 1.0 3.0 0.00 0.00 0.00 71 1013.0
20260507101432 73 83 1.0 3.0 0.00 0.00 0.00 71 1013.0
20260507100432 73 83 1.0 3.0 0.00 0.00 0.00 71 1013.0
20260507095431 73 83 1.0 3.0 0.00 0.00 0.00 71 1013.0
20260507094431 73 83 1.0 3.0 0.00 0.00 0.00 71 1013.0
20260507093431 73 83 1.0 3.0 0.00 0.00 0.00 71 1013.0
20260507092431 73 83 1.0 3.0 0.00 0.00 0.00 71 1013.0
20260507091430 73 83 1.0 3.0 0.00 0.00 0.00 71 1013.0
20260507090430 73 83 1.0 3.0 0.00 0.00 0.00 71 1013.0
20260507085430 73 83 1.0 3.0 0.00 0.00 0.00 71 1013.0
20260507084429 73 83 1.0 3.0 0.00 0.00 0.00 71 1013.0
20260507083429 73 83 1.0 3.0 0.00 0.00 0.00 71 1013.0
20260507082429 73 83 1.0 3.0 0.00 0.00 0.00 71 1013.0
20260507081428 73 83 1.0 3.0 0.00 0.00 0.00 71 1013.0
20260507080428 73 83 1.0 3.0 0.00 0.00 0.00 71 1013.0
20260507075427 73 83 1.0 3.0 0.00 0.00 0.00 71 1013.0
20260507074427 73 83 1.0 3.0 0.00 0.00 0.00 71 1013.0
20260507073427 73 83 1.0 3.0 0.00 0.00 0.00 71 1014.0
20260507072427 73 83 1.0 3.0 0.00 0.00 0.00 71 1014.0
20260507071426 73 83 1.0 3.0 0.00 0.00 0.00 71 1014.0
20260507070426 73 83 1.0 3.0 0.00 0.00 0.00 71 1014.0
20260507065426 73 83 1.0 3.0 0.00 0.00 0.00 71 1014.0
20260507064426 73 83 1.0 3.0 0.00 0.00 0.00 71 1014.0
20260507063425 74 83 2.0 3.0 0.00 0.00 0.00 71 1014.0
20260507062425 80 84 3.0 5.0 0.00 0.00 0.00 62 1014.0
20260507061425 80 84 3.0 5.0 0.00 0.00 0.00 62 1014.0
20260507060424 80 84 3.0 5.0 0.00 0.00 0.00 62 1014.0
20260507055424 80 84 3.0 5.0 0.00 0.00 0.00 62 1014.0
20260507054424 80 84 3.0 5.0 0.00 0.00 0.00 62 1014.0
20260507053423 80 84 3.0 5.0 0.00 0.00 0.00 62 1014.0
20260507052423 80 84 3.0 5.0 0.00 0.00 0.00 62 1014.0
20260507051422 80 84 3.0 5.0 0.00 0.00 0.00 62 1014.0
20260507050422 80 84 3.0 5.0 0.00 0.00 0.00 62 1014.0
20260507045422 80 84 3.0 5.0 0.00 0.00 0.00 62 1014.0
20260507044421 80 84 3.0 5.0 0.00 0.00 0.00 62 1014.0
20260507043421 80 84 3.0 5.0 0.00 0.00 0.00 62 1014.0
20260507042421 80 84 3.0 5.0 0.00 0.00 0.00 62 1014.0
20260507041420 80 84 3.0 5.0 0.00 0.00 0.00 62 1014.0
20260507040420 80 84 3.0 5.0 0.00 0.00 0.00 62 1014.0
20260507035419 80 84 3.0 5.0 0.00 0.00 0.00 62 1014.0
20260507034419 80 84 3.0 5.0 0.00 0.00 0.00 62 1014.0
20260507033418 80 84 3.0 5.0 0.00 0.00 0.00 62 1014.0
20260507032418 80 84 3.0 5.0 0.00 0.00 0.00 62 1014.0
20260507031418 80 84 3.0 5.0 0.00 0.00 0.00 62 1014.0
20260507030418 80 84 3.0 5.0 0.00 0.00 0.00 62 1014.0
20260507025417 80 84 3.0 5.0 0.00 0.00 0.00 62 1014.0
20260507024417 80 84 3.0 5.0 0.00 0.00 0.00 62 1014.0
20260507023417 84 95 5.0 10.0 0.00 0.00 0.00 49 1014.0
20260507022416 84 95 5.0 10.0 0.00 0.00 0.00 49 1013.0
20260507021416 84 95 5.0 10.0 0.00 0.00 0.00 49 1013.0
20260507020415 84 95 5.0 10.0 0.00 0.00 0.00 49 1013.0
20260507015415 84 95 5.0 10.0 0.00 0.00 0.00 49 1013.0
20260507014415 84 95 5.0 10.0 0.00 0.00 0.00 49 1013.0
20260507013415 84 95 5.0 10.0 0.00 0.00 0.00 49 1013.0
20260507012414 84 95 5.0 10.0 0.00 0.00 0.00 49 1012.0
20260507011414 84 95 5.0 10.0 0.00 0.00 0.00 49 1012.0
20260507010413 84 95 5.0 10.0 0.00 0.00 0.00 49 1012.0
20260507005413 84 95 5.0 10.0 0.00 0.00 0.00 49 1011.0
20260507004413 84 95 5.0 10.0 0.00 0.00 0.00 49 1011.0
20260507003412 84 95 5.0 10.0 0.00 0.00 0.00 49 1011.0
20260507002412 84 95 5.0 10.0 0.00 0.00 0.00 49 1011.0
20260507001412 84 95 5.0 10.0 0.00 0.00 0.00 49 1010.0
20260507000412 84 95 5.0 10.0 0.00 0.00 0.00 49 1010.0
20260506235411 85 95 5.0 10.0 0.00 0.00 0.00 49 1010.0
20260506234411 93 86 5.0 7.0 0.00 0.00 0.00 26 1010.0
20260506233410 93 86 5.0 7.0 0.00 0.00 0.00 26 1010.0
20260506232410 93 86 5.0 7.0 0.00 0.00 0.00 26 1009.0
20260506231409 93 86 5.0 7.0 0.00 0.00 0.00 26 1009.0
20260506230409 93 86 5.0 7.0 0.00 0.00 0.00 26 1009.0
20260506225409 93 86 5.0 7.0 0.00 0.00 0.00 26 1009.0
20260506224409 93 86 5.0 7.0 0.00 0.00 0.00 26 1009.0
20260506223408 93 86 5.0 7.0 0.00 0.00 0.00 26 1009.0
20260506222408 93 86 5.0 7.0 0.00 0.00 0.00 26 1008.0
20260506221407 93 86 5.0 7.0 0.00 0.00 0.00 26 1008.0
20260506220407 93 86 5.0 7.0 0.00 0.00 0.00 26 1008.0
20260506215407 93 86 5.0 7.0 0.00 0.00 0.00 26 1008.0
20260506214406 93 86 5.0 7.0 0.00 0.00 0.00 26 1008.0
20260506213406 93 86 5.0 7.0 0.00 0.00 0.00 26 1008.0
20260506212405 93 86 5.0 7.0 0.00 0.00 0.00 26 1008.0
20260506211405 93 86 5.0 7.0 0.00 0.00 0.00 26 1008.0
20260506210405 93 86 5.0 7.0 0.00 0.00 0.00 26 1008.0
20260506205404 93 86 5.0 7.0 0.00 0.00 0.00 26 1008.0
20260506204404 93 86 5.0 7.0 0.00 0.00 0.00 26 1008.0
20260506203403 93 86 5.0 7.0 0.00 0.00 0.00 26 1008.0
20260506202403 93 86 5.0 7.0 0.00 0.00 0.00 26 1009.0
20260506201403 93 86 5.0 7.0 0.00 0.00 0.00 26 1009.0
20260506200402 93 86 5.0 7.0 0.00 0.00 0.00 26 1009.0
20260506195402 94 86 6.0 7.0 0.00 0.00 0.00 26 1009.0
20260506194402 94 86 6.0 7.0 0.00 0.00 0.00 26 1009.0
20260506193401 91 90 7.0 8.0 0.00 0.00 0.00 28 1009.0
20260506192401 92 90 7.0 8.0 0.00 0.00 0.00 28 1011.0
20260506191401 91 90 7.0 8.0 0.00 0.00 0.00 28 1011.0
20260506190400 91 90 7.0 8.0 0.00 0.00 0.00 27 1011.0
20260506185400 92 90 7.0 8.0 0.00 0.00 0.00 27 1010.0
20260506184400 91 90 7.0 8.0 0.00 0.00 0.00 27 1011.0
20260506183359 91 90 7.0 8.0 0.00 0.00 0.00 27 1011.0
20260506182359 89 86 7.0 9.0 0.00 0.00 0.00 31 1012.0
20260506181359 89 86 7.0 9.0 0.00 0.00 0.00 31 1012.0
20260506180358 89 86 7.0 9.0 0.00 0.00 0.00 31 1012.0
20260506175358 89 86 7.0 9.0 0.00 0.00 0.00 30 1012.0
20260506174357 89 86 7.0 9.0 0.00 0.00 0.00 31 1012.0
20260506173357 89 86 7.0 9.0 0.00 0.00 0.00 31 1012.0
20260506172356 86 81 7.0 9.0 0.00 0.00 0.00 36 1013.0